Back to catalog

STARLINK-35042

AliveCommunicationsVLEO
NORAD 65481·PAYLOAD·🇺🇸 United States

Launched Sep 3, 2025 from Cape Canaveral Space Force Station

Loading…

Next Passes (next 24 hours)

TLE

FreshSource: CelesTrak SupGP

Epoch: Sep 14, 2026, 22:40 UTC

1 65481C 25195Z   26257.94493056  .00003082  00000+0  91071-4 0  2579
2 65481  53.1577  95.5761 0001231  85.8291 117.8044 15.34382776    19

Track STARLINK-35042 in real time with AllMySat

Download on the App Store